| time (UTC) | temp F | wind direction | speed MPH | gust MPH | rain 1hr in | rain 24hr in | rain mn in | humidity % | barometer mb |
| 20260904045003 | 78 | 137 | 1.0 | 3.0 | 0.00 | 0.14 | 0.00 | 91 | 1012.7 |
| 20260904044004 | 79 | 139 | 0.0 | 0.0 | 0.00 | 0.14 | 0.00 | 91 | 1012.9 |
| 20260904043003 | 79 | 139 | 0.0 | 0.0 | 0.00 | 0.14 | 0.00 | 91 | 1013.1 |
| 20260904042004 | 79 | 140 | 0.0 | 0.0 | 0.00 | 0.14 | 0.00 | 91 | 1013.2 |
| 20260904041002 | 79 | 140 | 1.0 | 4.0 | 0.00 | 0.14 | 0.00 | 91 | 1013.0 |
| 20260904040009 | 79 | 140 | 1.0 | 3.0 | 0.00 | 0.14 | 0.00 | 91 | 1013.0 |
| 20260904034005 | 79 | 140 | 1.0 | 5.0 | 0.00 | 0.17 | 0.14 | 91 | 1013.0 |
| 20260904031003 | 79 | 128 | 1.0 | 4.0 | 0.00 | 0.17 | 0.14 | 91 | 1012.8 |
| 20260904030007 | 79 | 109 | 1.0 | 4.0 | 0.00 | 0.17 | 0.14 | 91 | 1012.8 |
| 20260904025002 | 79 | 99 | 1.0 | 3.0 | 0.00 | 0.25 | 0.14 | 91 | 1012.7 |
| 20260904024005 | 79 | 98 | 1.0 | 7.0 | 0.00 | 0.25 | 0.14 | 90 | 1012.7 |
| 20260904022005 | 80 | 109 | 2.0 | 6.0 | 0.00 | 0.25 | 0.14 | 90 | 1012.9 |
| 20260904020006 | 80 | 116 | 2.0 | 6.0 | 0.00 | 0.25 | 0.14 | 89 | 1013.1 |
| 20260904015002 | 80 | 105 | 4.0 | 7.0 | 0.00 | 0.25 | 0.14 | 89 | 1012.9 |
| 20260904014005 | 80 | 111 | 4.0 | 8.0 | 0.00 | 0.25 | 0.14 | 89 | 1012.9 |
| 20260904013002 | 80 | 101 | 3.0 | 7.0 | 0.00 | 0.25 | 0.14 | 89 | 1012.8 |
| 20260904012005 | 80 | 114 | 2.0 | 4.0 | 0.00 | 0.25 | 0.14 | 89 | 1012.8 |
| 20260904011002 | 80 | 105 | 2.0 | 4.0 | 0.00 | 0.25 | 0.14 | 89 | 1012.6 |
| 20260904010007 | 81 | 108 | 1.0 | 6.0 | 0.00 | 0.25 | 0.14 | 89 | 1012.5 |
| 20260904004004 | 81 | 112 | 0.0 | 3.0 | 0.00 | 0.25 | 0.14 | 88 | 1012.2 |
| 20260904001002 | 81 | 119 | 1.0 | 4.0 | 0.00 | 0.25 | 0.14 | 86 | 1011.9 |
| 20260903235002 | 82 | 134 | 1.0 | 4.0 | 0.00 | 0.25 | 0.14 | 86 | 1012.1 |
| 20260903234004 | 82 | 102 | 2.0 | 6.0 | 0.00 | 0.25 | 0.14 | 85 | 1012.1 |
| 20260903233002 | 82 | 111 | 1.0 | 7.0 | 0.00 | 0.25 | 0.14 | 85 | 1012.1 |
| 20260903232004 | 83 | 115 | 1.0 | 5.0 | 0.00 | 0.25 | 0.14 | 85 | 1012.1 |
| 20260903231002 | 83 | 103 | 2.0 | 7.0 | 0.00 | 0.25 | 0.14 | 84 | 1012.1 |
| 20260903225002 | 84 | 92 | 2.0 | 6.0 | 0.00 | 0.25 | 0.14 | 84 | 1011.9 |
| 20260903223002 | 84 | 124 | 1.0 | 4.0 | 0.00 | 0.25 | 0.14 | 82 | 1011.5 |
| 20260903221002 | 85 | 94 | 2.0 | 4.0 | 0.00 | 0.25 | 0.14 | 81 | 1011.4 |
| 20260903220006 | 85 | 98 | 2.0 | 6.0 | 0.00 | 0.25 | 0.14 | 80 | 1011.2 |
| 20260903215002 | 86 | 90 | 3.0 | 7.0 | 0.00 | 0.25 | 0.14 | 80 | 1011.0 |
| 20260903214002 | 87 | 139 | 1.0 | 6.0 | 0.00 | 0.25 | 0.14 | 78 | 1011.0 |
| 20260903213002 | 87 | 5 | 1.0 | 5.0 | 0.00 | 0.25 | 0.14 | 77 | 1010.9 |
| 20260903211002 | 87 | 31 | 1.0 | 6.0 | 0.00 | 0.25 | 0.14 | 79 | 1010.6 |
| 20260903210004 | 87 | 83 | 1.0 | 4.0 | 0.00 | 0.25 | 0.14 | 80 | 1010.6 |
| 20260903205002 | 86 | 13 | 2.0 | 5.0 | 0.00 | 0.25 | 0.14 | 82 | 1010.6 |
| 20260903204002 | 86 | 288 | 2.0 | 8.0 | 0.00 | 0.25 | 0.14 | 81 | 1011.0 |
| 20260903203002 | 86 | 355 | 1.0 | 5.0 | 0.00 | 0.25 | 0.14 | 80 | 1011.2 |
| 20260903202002 | 86 | 338 | 1.0 | 4.0 | 0.00 | 0.25 | 0.14 | 78 | 1011.4 |
| 20260903201002 | 87 | 59 | 2.0 | 6.0 | 0.00 | 0.25 | 0.14 | 78 | 1011.5 |
| 20260903200005 | 86 | 63 | 3.0 | 8.0 | 0.00 | 0.25 | 0.14 | 79 | 1011.6 |
| 20260903195004 | 87 | 312 | 2.0 | 5.0 | 0.00 | 0.25 | 0.14 | 79 | 1011.5 |
| 20260903194002 | 88 | 313 | 4.0 | 7.0 | 0.00 | 0.25 | 0.14 | 76 | 1011.5 |
| 20260903193004 | 89 | 217 | 6.0 | 12.0 | 0.00 | 0.25 | 0.14 | 74 | 1011.6 |
| 20260903192002 | 90 | 209 | 5.0 | 10.0 | 0.00 | 0.25 | 0.14 | 71 | 1011.5 |
| 20260903191004 | 90 | 207 | 4.0 | 8.0 | 0.00 | 0.25 | 0.14 | 70 | 1011.5 |
| 20260903190005 | 91 | 191 | 2.0 | 6.0 | 0.00 | 0.25 | 0.14 | 68 | 1011.6 |
| 20260903185002 | 90 | 184 | 2.0 | 8.0 | 0.00 | 0.25 | 0.14 | 68 | 1011.8 |
| 20260903184002 | 86 | 207 | 1.0 | 6.0 | 0.00 | 0.25 | 0.14 | 79 | 1011.8 |
| 20260903183002 | 87 | 178 | 3.0 | 8.0 | 0.00 | 0.25 | 0.14 | 76 | 1011.7 |
| 20260903181002 | 88 | 214 | 5.0 | 10.0 | 0.00 | 0.25 | 0.14 | 71 | 1011.8 |
| 20260903180006 | 90 | 182 | 5.0 | 11.0 | 0.00 | 0.25 | 0.14 | 73 | 1011.9 |
| 20260903175002 | 90 | 219 | 6.0 | 10.0 | 0.00 | 0.25 | 0.14 | 68 | 1012.3 |
| 20260903174004 | 90 | 206 | 6.0 | 11.0 | 0.00 | 0.25 | 0.14 | 70 | 1012.4 |
| 20260903172004 | 88 | 241 | 5.0 | 9.0 | 0.10 | 0.25 | 0.14 | 69 | 1012.4 |
| 20260903171002 | 88 | 184 | 4.0 | 8.0 | 0.10 | 0.25 | 0.14 | 77 | 1012.6 |
| 20260903170007 | 87 | 228 | 1.0 | 7.0 | 0.10 | 0.25 | 0.14 | 82 | 1012.6 |
| 20260903164004 | 83 | 279 | 4.0 | 12.0 | 0.10 | 0.25 | 0.14 | 87 | 1012.8 |
| 20260903163002 | 81 | 271 | 4.0 | 14.0 | 0.07 | 0.22 | 0.11 | 88 | 1013.0 |
| 20260903160006 | 88 | 114 | 2.0 | 7.0 | 0.00 | 0.15 | 0.04 | 76 | 1013.2 |
| 20260903155001 | 88 | 182 | 1.0 | 7.0 | 0.00 | 0.15 | 0.04 | 76 | 1013.3 |
| 20260903154003 | 86 | 86 | 1.0 | 5.0 | 0.00 | 0.15 | 0.04 | 81 | 1013.3 |
| 20260903153001 | 86 | 150 | 1.0 | 5.0 | 0.00 | 0.15 | 0.04 | 78 | 1013.4 |
| 20260903151001 | 85 | 177 | 1.0 | 5.0 | 0.00 | 0.15 | 0.04 | 81 | 1013.5 |
| 20260903150005 | 86 | 130 | 1.0 | 8.0 | 0.00 | 0.15 | 0.04 | 83 | 1013.4 |
| 20260903145004 | 86 | 103 | 1.0 | 6.0 | 0.00 | 0.15 | 0.04 | 83 | 1013.2 |
| 20260903144001 | 84 | 211 | 1.0 | 5.0 | 0.00 | 0.15 | 0.04 | 83 | 1013.1 |
| 20260903143001 | 85 | 167 | 1.0 | 4.0 | 0.00 | 0.15 | 0.04 | 84 | 1013.0 |
| 20260903142003 | 84 | 153 | 1.0 | 5.0 | 0.00 | 0.15 | 0.04 | 84 | 1013.1 |
| 20260903141001 | 83 | 196 | 1.0 | 4.0 | 0.00 | 0.15 | 0.04 | 87 | 1013.1 |
| 20260903140005 | 82 | 194 | 1.0 | 4.0 | 0.00 | 0.15 | 0.04 | 87 | 1013.3 |
| 20260903135001 | 82 | 169 | 1.0 | 3.0 | 0.00 | 0.15 | 0.04 | 88 | 1013.4 |
| 20260903134003 | 82 | 156 | 1.0 | 4.0 | 0.00 | 0.15 | 0.04 | 89 | 1013.4 |
| 20260903133001 | 81 | 146 | 1.0 | 4.0 | 0.00 | 0.15 | 0.04 | 91 | 1013.2 |
| 20260903132003 | 80 | 133 | 1.0 | 4.0 | 0.00 | 0.15 | 0.04 | 91 | 1013.2 |
| 20260903131001 | 79 | 138 | 1.0 | 6.0 | 0.00 | 0.15 | 0.04 | 92 | 1013.1 |
| 20260903130007 | 79 | 128 | 2.0 | 7.0 | 0.00 | 0.15 | 0.04 | 94 | 1013.0 |
| 20260903125001 | 78 | 111 | 3.0 | 7.0 | 0.00 | 0.15 | 0.04 | 94 | 1013.0 |
| 20260903124003 | 77 | 117 | 3.0 | 8.0 | 0.00 | 0.15 | 0.04 | 95 | 1013.0 |
| 20260903123001 | 77 | 113 | 1.0 | 7.0 | 0.00 | 0.15 | 0.04 | 95 | 1013.0 |
| 20260903122003 | 77 | 113 | 1.0 | 4.0 | 0.00 | 0.15 | 0.04 | 96 | 1013.0 |
| 20260903121001 | 77 | 113 | 1.0 | 4.0 | 0.00 | 0.15 | 0.04 | 96 | 1013.0 |
| 20260903115000 | 76 | 119 | 1.0 | 2.0 | 0.00 | 0.15 | 0.04 | 96 | 1012.5 |
| 20260903114003 | 76 | 120 | 0.0 | 0.0 | 0.00 | 0.15 | 0.04 | 95 | 1012.4 |
| 20260903113001 | 75 | 120 | 0.0 | 0.0 | 0.00 | 0.15 | 0.04 | 95 | 1012.2 |
| 20260903112003 | 76 | 120 | 0.0 | 0.0 | 0.00 | 0.15 | 0.04 | 95 | 1011.9 |
| 20260903111001 | 76 | 120 | 0.0 | 0.0 | 0.00 | 0.15 | 0.04 | 95 | 1011.8 |
| 20260903110005 | 76 | 120 | 0.0 | 0.0 | 0.00 | 0.15 | 0.04 | 95 | 1011.8 |
| 20260903105001 | 76 | 120 | 0.0 | 0.0 | 0.00 | 0.16 | 0.04 | 95 | 1011.8 |
| 20260903102003 | 76 | 120 | 0.0 | 0.0 | 0.00 | 0.16 | 0.04 | 95 | 1011.7 |
| 20260903101001 | 76 | 120 | 0.0 | 0.0 | 0.00 | 0.16 | 0.04 | 95 | 1011.6 |
| 20260903100005 | 76 | 120 | 0.0 | 2.0 | 0.00 | 0.16 | 0.04 | 95 | 1011.5 |
| 20260903094003 | 76 | 111 | 0.0 | 0.0 | 0.00 | 0.16 | 0.04 | 95 | 1011.4 |
| 20260903093001 | 76 | 111 | 1.0 | 4.0 | 0.00 | 0.16 | 0.04 | 95 | 1011.3 |
| 20260903092003 | 76 | 110 | 0.0 | 2.0 | 0.00 | 0.16 | 0.04 | 95 | 1011.2 |
| 20260903091001 | 76 | 111 | 0.0 | 0.0 | 0.00 | 0.16 | 0.04 | 95 | 1011.1 |
| 20260903090005 | 76 | 111 | 1.0 | 3.0 | 0.00 | 0.16 | 0.04 | 94 | 1011.2 |
| 20260903085001 | 76 | 111 | 1.0 | 3.0 | 0.00 | 0.16 | 0.04 | 94 | 1011.2 |
| 20260903084004 | 76 | 111 | 1.0 | 3.0 | 0.00 | 0.16 | 0.04 | 94 | 1011.0 |
| 20260903083000 | 77 | 111 | 1.0 | 4.0 | 0.00 | 0.16 | 0.04 | 94 | 1011.0 |
| 20260903082003 | 77 | 112 | 2.0 | 4.0 | 0.00 | 0.16 | 0.04 | 94 | 1010.8 |
| 20260903075001 | 77 | 123 | 1.0 | 3.0 | 0.00 | 0.16 | 0.04 | 94 | 1011.1 |
| 20260903074002 | 77 | 123 | 1.0 | 3.0 | 0.00 | 0.16 | 0.04 | 94 | 1011.1 |
| 20260903072002 | 76 | 112 | 2.0 | 6.0 | 0.00 | 0.16 | 0.04 | 95 | 1011.0 |
| 20260903071002 | 76 | 121 | 3.0 | 6.0 | 0.00 | 0.16 | 0.04 | 95 | 1011.2 |
| 20260903070005 | 76 | 111 | 3.0 | 6.0 | 0.00 | 0.16 | 0.04 | 95 | 1011.3 |
| 20260903065000 | 76 | 117 | 3.0 | 6.0 | 0.00 | 0.16 | 0.04 | 95 | 1011.4 |
| 20260903064002 | 76 | 111 | 3.0 | 6.0 | 0.00 | 0.16 | 0.04 | 95 | 1011.4 |
| 20260903063001 | 76 | 113 | 3.0 | 6.0 | 0.00 | 0.16 | 0.04 | 95 | 1011.7 |
| 20260903062001 | 76 | 107 | 0.0 | 4.0 | 0.00 | 0.16 | 0.04 | 95 | 1011.6 |
| 20260903061000 | 76 | 121 | 0.0 | 4.0 | 0.01 | 0.16 | 0.04 | 95 | 1011.7 |
| 20260903060003 | 76 | 121 | 0.0 | 4.0 | 0.01 | 0.16 | 0.04 | 95 | 1011.9 |
| 20260903054000 | 76 | 125 | 0.0 | 0.0 | 0.02 | 0.16 | 0.04 | 95 | 1012.1 |
| 20260903053003 | 76 | 125 | 0.0 | 0.0 | 0.02 | 0.16 | 0.04 | 95 | 1012.3 |
| 20260903052000 | 76 | 125 | 0.0 | 0.0 | 0.03 | 0.16 | 0.04 | 94 | 1012.5 |
| 20260903051002 | 76 | 125 | 0.0 | 0.0 | 0.03 | 0.15 | 0.03 | 94 | 1012.5 |
| 20260903050004 | 76 | 125 | 0.0 | 0.0 | 0.03 | 0.15 | 0.03 | 94 | 1012.5 |